Sheboygan, WI

7:44 PM CDT on April 23, 2017 (GMT -0500)
Sheboygan County Memorial

Weather History for KSBM - August, 2013

Change the Weather History Date:

Friday, August 30, 2013

  Actual Average Record
Temperature  
Mean Temperature 76 °F -  
Max Temperature 90 °F 78 °F 96 °F (1961)
Min Temperature 63 °F 60 °F 46 °F (1999)
Cooling Degree Days 12    
Growing Degree Days 26 (Base 50)    
Moisture  
Dew Point 69 °F    
Average Humidity 82    
Maximum Humidity 97    
Minimum Humidity 59    
Precipitation  
Precipitation 0.00 in - - ()
Sea Level Pressure  
Sea Level Pressure 29.85 in    
Wind  
Wind Speed 7 mph (NNW)    
Max Wind Speed 17 mph    
Max Gust Speed 26 mph    
Visibility 9 miles    
Events Rain    
Averages and records for this station are not official NWS values.
T = Trace of Precipitation, MM = Missing Value Source: NWS Daily Summary

Daily Weather History Graph

Daily Weather History Graph

Search for Another Location

Airport or City:

Trip Planner

Search our weather history database for the weather conditions in past years. The results will help you decide how hot, cold, wet, or windy it might be!

Date:

Astronomy

Aug. 30, 2013 Rise Set
Actual Time 6:12 AM CDT 7:30 PM CDT
Civil Twilight 5:43 AM CDT 7:59 PM CDT
Nautical Twilight 5:07 AM CDT 8:35 PM CDT
Astronomical Twilight 4:29 AM CDT 9:13 PM CDT
Moon 12:45 AM CDT (8/30) 3:51 PM CDT (8/30)
Length of Visible Light 14h 16m
Length of Day
13h 17m
Waning Crescent, 29% of the Moon is Illuminated
Aug 30
Waning Crescent
Sep 5
New
Sep 12
First Quarter
Sep 19
Full
Sep 26
Last Quarter

Hourly Weather History & Observations

Time (CDT) Temp. Heat Index Dew Point Humidity Pressure Visibility Wind Dir Wind Speed Gust Speed Precip Events Conditions
12:53 AM 66.9 °F - 66.0 °F 97% 29.98 in 8.0 mi Calm Calm - N/A   Clear
1:53 AM 66.9 °F - 66.0 °F 97% 29.96 in 7.0 mi Calm Calm - N/A   Clear
2:53 AM 68.0 °F - 66.0 °F 93% 29.91 in 7.0 mi South 4.6 mph - N/A   Scattered Clouds
3:53 AM 66.9 °F - 66.0 °F 97% 29.90 in 7.0 mi South 4.6 mph - N/A   Scattered Clouds
4:53 AM 66.0 °F - 64.9 °F 96% 29.90 in 6.0 mi Calm Calm - N/A   Partly Cloudy
5:53 AM 66.0 °F - 64.9 °F 96% 29.88 in 7.0 mi South 4.6 mph - N/A   Clear
6:53 AM 66.9 °F - 66.0 °F 97% 29.86 in 5.0 mi South 6.9 mph - N/A   Clear
7:53 AM 73.9 °F - 70.0 °F 87% 29.85 in 10.0 mi SW 11.5 mph - N/A   Clear
8:53 AM 79.0 °F - 73.0 °F 82% 29.83 in 10.0 mi SW 11.5 mph - N/A   Clear
9:53 AM 82.0 °F 87.9 °F 73.9 °F 76% 29.82 in 10.0 mi SW 11.5 mph - N/A   Clear
10:53 AM 87.1 °F 95.4 °F 73.9 °F 65% 29.81 in 10.0 mi West 9.2 mph - N/A   Clear
11:53 AM 90.0 °F 99.0 °F 73.9 °F 59% 29.79 in 10.0 mi West 12.7 mph - N/A   Clear
12:53 PM 87.1 °F 95.4 °F 73.9 °F 65% 29.79 in 10.0 mi WNW 11.5 mph - N/A   Partly Cloudy
1:53 PM 84.0 °F 91.9 °F 75.0 °F 74% 29.80 in 10.0 mi NNW 10.4 mph - 0.00 in Rain Light Rain
2:03 PM 84.2 °F 92.3 °F 75.2 °F 74% 29.80 in 10.0 mi NW 10.4 mph - 0.00 in   Overcast
2:53 PM 87.1 °F 96.3 °F 75.0 °F 67% 29.78 in 10.0 mi NNW 10.4 mph - 0.00 in   Mostly Cloudy
3:36 PM 84.2 °F 90.9 °F 73.4 °F 70% 29.80 in 10.0 mi NNW 11.5 mph - N/A   Mostly Cloudy
3:53 PM 86.0 °F 95.1 °F 75.0 °F 70% 29.78 in 10.0 mi North 9.2 mph - N/A   Mostly Cloudy
4:44 PM 78.8 °F - 69.8 °F 74% 29.81 in 10.0 mi NE 17.3 mph - N/A   Mostly Cloudy
4:53 PM 77.0 °F - 68.0 °F 74% 29.80 in 10.0 mi NE 16.1 mph - N/A   Mostly Cloudy
5:53 PM 73.0 °F - 64.9 °F 76% 29.83 in 10.0 mi ENE 17.3 mph 23.0 mph N/A   Overcast
6:53 PM 70.0 °F - 64.9 °F 84% 29.85 in 10.0 mi NE 16.1 mph 26.5 mph N/A   Partly Cloudy
7:53 PM 66.9 °F - 63.0 °F 87% 29.87 in 10.0 mi NE 15.0 mph - N/A   Mostly Cloudy
8:53 PM 63.0 °F - 62.1 °F 97% 29.89 in 10.0 mi NNE 4.6 mph - N/A   Clear
9:53 PM 66.0 °F - 63.0 °F 90% 29.89 in 10.0 mi North 3.5 mph - N/A   Mostly Cloudy
10:53 PM 68.0 °F - 63.0 °F 84% 29.87 in 10.0 mi North 4.6 mph - N/A   Overcast
11:53 PM 68.0 °F - 63.0 °F 84% 29.87 in 10.0 mi NNW 5.8 mph - N/A   Overcast